Wasilla, AK

12:20 PM AKST on February 25, 2017 (GMT -0900)
Wasilla

Weather History for PAWS - May, 2014

Change the Weather History Date:

Friday, May 9, 2014

  Actual Average Record
Temperature  
Mean Temperature 49 °F -  
Max Temperature 66 °F 57 °F 76 °F (1981)
Min Temperature 32 °F 34 °F 14 °F (1964)
Degree Days  
Heating Degree Days 16    
Moisture  
Dew Point 27 °F    
Average Humidity 42    
Maximum Humidity 81    
Minimum Humidity 22    
Precipitation  
Precipitation 0.00 in - - ()
Sea Level Pressure  
Sea Level Pressure 29.96 in    
Wind  
Wind Speed 5 mph (West)    
Max Wind Speed 18 mph    
Max Gust Speed 25 mph    
Visibility 10 miles    
Events      
Averages and records for this station are not official NWS values.
T = Trace of Precipitation, MM = Missing Value Source: NWS Daily Summary

Daily Weather History Graph

Daily Weather History Graph

Search for Another Location

Airport or City:

Trip Planner

Search our weather history database for the weather conditions in past years. The results will help you decide how hot, cold, wet, or windy it might be!

Date:

Astronomy

May. 09, 2014 Rise Set
Actual Time 5:23 AM AKDT 10:27 PM AKDT
Civil Twilight 4:18 AM AKDT 11:33 PM AKDT
Nautical Twilight 2:27 AM AKDT 1:22 AM AKDT
Astronomical Twilight Sun does not rise Sun does not rise
Moon 4:06 PM AKDT (5/9) 4:06 AM AKDT (5/9)
Length of Visible Light 19h 15m
Length of Day
17h 03m
Waxing Gibbous, 75% of the Moon is Illuminated
May 9
Waxing Gibbous
May 14
Full
May 21
Last Quarter
May 28
New
Jun 5
First Quarter

Hourly Weather History & Observations

Time (AKDT) Temp. Windchill Dew Point Humidity Pressure Visibility Wind Dir Wind Speed Gust Speed Precip Events Conditions
12:16 AM 46.4 °F 43.5 °F 28.4 °F 50% 29.87 in 10.0 mi West 5.8 mph - N/A   Mostly Cloudy
12:36 AM 46.4 °F 43.5 °F 28.4 °F 50% 29.87 in 10.0 mi WSW 5.8 mph - N/A   Overcast
1:16 AM 44.6 °F 42.2 °F 28.4 °F 53% 29.88 in 10.0 mi WSW 4.6 mph - N/A   Mostly Cloudy
1:36 AM 44.6 °F 41.4 °F 26.6 °F 49% 29.89 in 10.0 mi WSW 5.8 mph - N/A   Clear
1:56 AM 42.8 °F 39.3 °F 26.6 °F 53% 29.89 in 10.0 mi WSW 5.8 mph - N/A   Clear
2:16 AM 42.8 °F - 26.6 °F 53% 29.90 in 10.0 mi Calm Calm - N/A   Clear
2:36 AM 41.0 °F - 28.4 °F 61% 29.90 in 10.0 mi Calm Calm - N/A   Clear
2:56 AM 41.0 °F - 26.6 °F 57% 29.90 in 10.0 mi Calm Calm - N/A   Clear
3:16 AM 39.2 °F 35.9 °F 26.6 °F 61% 29.91 in 10.0 mi SW 4.6 mph - N/A   Clear
3:36 AM 41.0 °F - 26.6 °F 57% 29.91 in 10.0 mi Calm Calm - N/A   Clear
3:56 AM 39.2 °F - 26.6 °F 61% 29.92 in 10.0 mi Calm Calm - N/A   Clear
4:16 AM 35.6 °F - 24.8 °F 65% 29.92 in 10.0 mi Calm Calm - N/A   Clear
4:36 AM 35.6 °F - 26.6 °F 70% 29.92 in 10.0 mi Calm Calm - N/A   Clear
4:56 AM 35.6 °F - 28.4 °F 75% 29.93 in 10.0 mi Calm Calm - N/A   Clear
5:16 AM 33.8 °F - 28.4 °F 81% 29.93 in 10.0 mi Calm Calm - N/A   Clear
5:36 AM 33.8 °F - 26.6 °F 75% 29.93 in 10.0 mi Calm Calm - N/A   Clear
5:56 AM 32.0 °F - 26.6 °F 80% 29.94 in 10.0 mi Calm Calm - N/A   Clear
6:16 AM 32.0 °F - 26.6 °F 80% 29.94 in 10.0 mi Calm Calm - N/A   Clear
6:36 AM 33.8 °F - 26.6 °F 75% 29.94 in 10.0 mi Calm Calm - N/A   Clear
6:56 AM 33.8 °F 28.6 °F 26.6 °F 75% 29.95 in 10.0 mi SW 5.8 mph - N/A   Clear
7:16 AM 35.6 °F 32.8 °F 28.4 °F 75% 29.95 in 10.0 mi West 3.5 mph - N/A   Clear
7:36 AM 37.4 °F - 28.4 °F 70% 29.96 in 10.0 mi Calm Calm - N/A   Clear
7:56 AM 39.2 °F - 30.2 °F 70% 29.96 in 10.0 mi Calm Calm - N/A   Clear
8:16 AM 44.6 °F - 30.2 °F 57% 29.97 in 10.0 mi Calm Calm - N/A   Clear
8:36 AM 46.4 °F - 28.4 °F 50% 29.97 in 10.0 mi Calm Calm - N/A   Clear
8:56 AM 46.4 °F - 28.4 °F 50% 29.97 in 10.0 mi Calm Calm - N/A   Clear
9:16 AM 46.4 °F - 30.2 °F 53% 29.97 in 10.0 mi Calm Calm - N/A   Clear
9:36 AM 48.2 °F - 30.2 °F 50% 29.97 in 10.0 mi Calm Calm - N/A   Clear
9:56 AM 51.8 °F - 28.4 °F 41% 29.97 in 10.0 mi WSW 4.6 mph - N/A   Clear
10:16 AM 53.6 °F - 30.2 °F 41% 29.98 in 10.0 mi WSW 4.6 mph - N/A   Clear
10:36 AM 53.6 °F - 30.2 °F 41% 29.98 in 10.0 mi West 4.6 mph - N/A   Clear
10:56 AM 55.4 °F - 30.2 °F 38% 29.97 in 10.0 mi SW 6.9 mph - N/A   Clear
11:16 AM 57.2 °F - 30.2 °F 36% 29.98 in 10.0 mi WSW 4.6 mph - N/A   Clear
11:36 AM 57.2 °F - 28.4 °F 33% 29.98 in 10.0 mi WSW 6.9 mph - N/A   Clear
11:56 AM 59.0 °F - 30.2 °F 34% 29.98 in 10.0 mi WSW 5.8 mph - N/A   Clear
12:16 PM 60.8 °F - 30.2 °F 31% 29.98 in 10.0 mi WNW 9.2 mph - N/A   Clear
12:36 PM 60.8 °F - 30.2 °F 31% 29.99 in 10.0 mi West 10.4 mph - N/A   Clear
12:56 PM 60.8 °F - 30.2 °F 31% 29.99 in 10.0 mi WSW 6.9 mph - N/A   Clear
1:16 PM 62.6 °F - 30.2 °F 30% 29.98 in 10.0 mi WSW 6.9 mph - N/A   Clear
1:36 PM 62.6 °F - 30.2 °F 30% 29.98 in 10.0 mi WNW 11.5 mph - N/A   Clear
1:56 PM 62.6 °F - 30.2 °F 30% 29.98 in 10.0 mi West 10.4 mph - N/A   Clear
2:16 PM 64.4 °F - 28.4 °F 26% 29.97 in 10.0 mi SW 6.9 mph - N/A   Clear
2:36 PM 64.4 °F - 28.4 °F 26% 29.97 in 10.0 mi WSW 9.2 mph - N/A   Clear
2:56 PM 64.4 °F - 28.4 °F 26% 29.97 in 10.0 mi NNW 5.8 mph - N/A   Clear
3:16 PM 66.2 °F - 28.4 °F 24% 29.97 in 10.0 mi West 8.1 mph 17.3 mph N/A   Clear
3:36 PM 66.2 °F - 28.4 °F 24% 29.97 in 10.0 mi West 4.6 mph 17.3 mph N/A   Partly Cloudy
3:56 PM 66.2 °F - 26.6 °F 23% 29.96 in 10.0 mi WNW 10.4 mph 17.3 mph N/A   Clear
4:16 PM 66.2 °F - 28.4 °F 24% 29.96 in 10.0 mi NW 10.4 mph - N/A   Clear
4:36 PM 66.2 °F - 26.6 °F 23% 29.96 in 10.0 mi West 6.9 mph 19.6 mph N/A   Clear
4:56 PM 66.2 °F - 26.6 °F 23% 29.96 in 10.0 mi West 16.1 mph 21.9 mph N/A   Scattered Clouds
5:16 PM 66.2 °F - 28.4 °F 24% 29.96 in 10.0 mi WNW 13.8 mph 21.9 mph N/A   Mostly Cloudy
5:36 PM 66.2 °F - 26.6 °F 23% 29.96 in 10.0 mi WNW 18.4 mph 25.3 mph N/A   Partly Cloudy
5:56 PM 66.2 °F - 26.6 °F 23% 29.97 in 10.0 mi NW 13.8 mph 21.9 mph N/A   Clear
6:16 PM 64.4 °F - 26.6 °F 24% 29.97 in 10.0 mi West 18.4 mph 23.0 mph N/A   Clear
6:36 PM 64.4 °F - 26.6 °F 24% 29.98 in 10.0 mi WNW 11.5 mph 23.0 mph N/A   Scattered Clouds
6:56 PM 64.4 °F - 26.6 °F 24% 29.98 in 10.0 mi WNW 15.0 mph 23.0 mph N/A   Mostly Cloudy
7:16 PM 64.4 °F - 24.8 °F 22% 29.99 in 10.0 mi NW 16.1 mph 21.9 mph N/A   Scattered Clouds
7:36 PM 62.6 °F - 24.8 °F 24% 29.99 in 10.0 mi WNW 18.4 mph 24.2 mph N/A   Clear
7:56 PM 64.4 °F - 24.8 °F 22% 29.99 in 10.0 mi WNW 12.7 mph 18.4 mph N/A   Mostly Cloudy
8:16 PM 62.6 °F - 24.8 °F 24% 30.00 in 10.0 mi WNW 15.0 mph 20.7 mph N/A   Mostly Cloudy
8:36 PM 62.6 °F - 24.8 °F 24% 30.00 in 10.0 mi WNW 9.2 mph 19.6 mph N/A   Scattered Clouds
8:56 PM 60.8 °F - 24.8 °F 25% 30.00 in 10.0 mi WNW 11.5 mph - N/A   Partly Cloudy
9:16 PM 60.8 °F - 24.8 °F 25% 30.01 in 10.0 mi WNW 12.7 mph 17.3 mph N/A   Clear
9:36 PM 59.0 °F - 24.8 °F 27% 30.01 in 10.0 mi WNW 12.7 mph 18.4 mph N/A   Clear
9:56 PM 57.2 °F - 24.8 °F 29% 30.02 in 10.0 mi WNW 12.7 mph 19.6 mph N/A   Clear
10:16 PM 57.2 °F - 24.8 °F 29% 30.03 in 10.0 mi WNW 10.4 mph 17.3 mph N/A   Clear
10:36 PM 55.4 °F - 24.8 °F 31% 30.03 in 10.0 mi WNW 11.5 mph 16.1 mph N/A   Clear
10:56 PM 55.4 °F - 24.8 °F 31% 30.04 in 10.0 mi West 8.1 mph - N/A   Clear
11:16 PM 53.6 °F - 24.8 °F 33% 30.04 in 10.0 mi West 9.2 mph - N/A   Clear
11:36 PM 53.6 °F - 24.8 °F 33% 30.05 in 10.0 mi West 9.2 mph - N/A   Clear
11:56 PM 53.6 °F - 24.8 °F 33% 30.05 in 10.0 mi West 9.2 mph - N/A   Clear